TimeCDT,TemperatureF,Dew PointF,Humidity,Sea Level PressureIn,VisibilityMPH,Wind Direction,Wind SpeedMPH,Gust SpeedMPH,PrecipitationIn,Events,Conditions,WindDirDegrees,DateUTC
12:05 AM,32.0,32.0,100,29.64,3.0,NE,4.6,-,N/A,Snow,Light Snow,40,2013-04-12 05:05:00
12:19 AM,32.0,30.2,93,29.64,3.0,ENE,5.8,-,N/A,Snow,Light Snow,60,2013-04-12 05:19:00
12:32 AM,32.0,30.2,93,29.64,3.0,ENE,5.8,-,N/A,Snow,Light Snow,60,2013-04-12 05:32:00
12:34 AM,32.0,30.2,93,29.64,3.0,ENE,4.6,-,N/A,Snow,Light Snow,60,2013-04-12 05:34:00
12:43 AM,32.0,30.2,93,29.64,3.0,NE,4.6,-,N/A,Snow,Light Snow,50,2013-04-12 05:43:00
12:50 AM,32.0,30.2,93,29.63,3.0,ENE,6.9,-,N/A,Snow,Light Snow,60,2013-04-12 05:50:00
12:55 AM,31.3,30.7,98,29.63,4.0,ENE,6.9,-,0.00,Snow,Light Snow,60,2013-04-12 05:55:00
1:54 AM,30.2,30.2,100,29.61,8.0,NE,5.8,-,N/A,Snow,Light Snow,40,2013-04-12 06:54:00
1:55 AM,30.9,30.2,97,29.61,8.0,NE,5.8,-,0.00,Snow,Light Snow,50,2013-04-12 06:55:00
1:58 AM,30.2,30.2,100,29.61,8.0,NE,4.6,-,N/A,Snow,Light Snow,50,2013-04-12 06:58:00
1:59 AM,30.2,30.2,100,29.61,8.0,NE,4.6,-,N/A,,Overcast,50,2013-04-12 06:59:00
2:02 AM,30.2,30.2,100,29.61,8.0,NE,3.5,-,N/A,,Overcast,40,2013-04-12 07:02:00
2:05 AM,30.2,30.2,100,29.61,8.0,NE,4.6,-,N/A,,Overcast,50,2013-04-12 07:05:00
2:16 AM,30.2,30.2,100,29.60,7.0,NE,4.6,-,N/A,Snow,Light Snow,50,2013-04-12 07:16:00
2:34 AM,30.2,30.2,100,29.60,6.0,NNE,3.5,-,N/A,Snow,Light Snow,30,2013-04-12 07:34:00
2:39 AM,30.2,30.2,100,29.60,6.0,NE,5.8,-,N/A,Snow,Light Snow,40,2013-04-12 07:39:00
2:41 AM,30.2,30.2,100,29.60,7.0,NE,4.6,-,N/A,Snow,Light Snow,50,2013-04-12 07:41:00
2:55 AM,30.7,30.0,97,29.60,8.0,NE,4.6,-,0.00,Snow,Light Snow,40,2013-04-12 07:55:00
3:05 AM,30.2,30.2,100,29.60,9.0,NE,3.5,-,N/A,Snow,Light Snow,40,2013-04-12 08:05:00
3:06 AM,30.2,30.2,100,29.60,9.0,NE,3.5,-,N/A,,Overcast,40,2013-04-12 08:06:00
3:18 AM,30.2,30.2,100,29.60,10.0,Variable,4.6,-,N/A,,Overcast,0,2013-04-12 08:18:00
3:22 AM,30.2,30.2,100,29.60,10.0,NE,3.5,-,N/A,Snow,Light Snow,40,2013-04-12 08:22:00
3:45 AM,30.2,30.2,100,29.60,7.0,NE,3.5,-,N/A,,Overcast,40,2013-04-12 08:45:00
3:55 AM,30.9,30.4,98,29.59,6.0,NNE,3.5,-,0.00,,Overcast,30,2013-04-12 08:55:00
3:58 AM,30.2,30.2,100,29.59,6.0,NNE,4.6,-,N/A,,Overcast,30,2013-04-12 08:58:00
4:01 AM,30.2,30.2,100,29.59,6.0,NNE,3.5,-,N/A,,Overcast,20,2013-04-12 09:01:00
4:08 AM,30.2,30.2,100,29.59,7.0,North,3.5,-,N/A,,Overcast,10,2013-04-12 09:08:00
4:34 AM,30.2,30.2,100,29.59,5.0,North,4.6,-,N/A,,Overcast,10,2013-04-12 09:34:00
4:35 AM,30.2,30.2,100,29.59,5.0,North,4.6,-,N/A,,Overcast,10,2013-04-12 09:35:00
4:42 AM,30.2,30.2,100,29.59,5.0,NNE,3.5,-,N/A,,Overcast,20,2013-04-12 09:42:00
4:49 AM,30.2,30.2,100,29.59,4.0,North,5.8,-,N/A,Snow,Light Snow,360,2013-04-12 09:49:00
4:55 AM,30.7,30.6,99,29.59,4.0,North,4.6,-,0.00,Snow,Light Snow,360,2013-04-12 09:55:00
4:57 AM,30.2,30.2,100,29.59,4.0,North,4.6,-,N/A,Snow,Light Snow,360,2013-04-12 09:57:00
5:27 AM,30.2,30.2,100,29.58,2.5,North,4.6,-,N/A,Snow,Light Snow,350,2013-04-12 10:27:00
5:43 AM,30.2,30.2,100,29.59,2.5,North,4.6,-,N/A,Snow,Light Snow,350,2013-04-12 10:43:00
5:47 AM,30.2,30.2,100,29.59,2.0,NNW,3.5,-,N/A,Snow,Light Snow,340,2013-04-12 10:47:00
5:55 AM,30.6,30.4,99,29.58,2.0,North,4.6,-,0.00,Snow,Light Snow,350,2013-04-12 10:55:00
5:57 AM,30.2,30.2,100,29.58,2.0,NNW,4.6,-,N/A,Snow,Light Snow,340,2013-04-12 10:57:00
6:04 AM,30.2,30.2,100,29.58,2.5,NNW,3.5,-,N/A,Snow,Light Snow,330,2013-04-12 11:04:00
6:05 AM,30.2,30.2,100,29.58,2.0,NNW,4.6,-,N/A,Snow,Light Snow,330,2013-04-12 11:05:00
6:12 AM,30.2,30.2,100,29.58,2.5,NNW,4.6,-,N/A,Snow,Light Snow,330,2013-04-12 11:12:00
6:13 AM,30.2,30.2,100,29.58,2.0,NNW,4.6,-,N/A,Snow,Light Snow,330,2013-04-12 11:13:00
6:31 AM,30.2,30.2,100,29.59,2.5,NNW,4.6,-,N/A,Snow,Light Snow,330,2013-04-12 11:31:00
6:51 AM,30.2,30.2,100,29.59,3.0,NNW,4.6,-,N/A,Snow,Light Snow,330,2013-04-12 11:51:00
6:55 AM,30.2,30.2,100,29.59,2.8,NNW,5.8,-,N/A,Snow,Light Snow,340,2013-04-12 11:55:00
7:55 AM,30.2,30.2,100,29.60,3.0,North,4.6,-,N/A,Snow,Light Snow,350,2013-04-12 12:55:00
8:16 AM,32.0,30.2,93,29.58,2.5,NNW,5.8,-,N/A,Snow,Light Snow,340,2013-04-12 13:16:00
8:20 AM,32.0,30.2,93,29.61,3.0,North,5.8,-,N/A,Snow,Light Snow,350,2013-04-12 13:20:00
8:55 AM,32.0,30.2,93,29.62,3.0,NNW,3.5,-,N/A,Snow,Light Snow,340,2013-04-12 13:55:00
8:56 AM,32.0,30.2,93,29.62,5.0,NNW,3.5,-,N/A,Snow,Light Snow,340,2013-04-12 13:56:00
9:46 AM,32.0,30.2,93,29.60,2.0,North,5.8,-,N/A,Snow,Light Snow,360,2013-04-12 14:46:00
9:55 AM,33.8,32.0,93,29.63,2.0,North,5.8,-,N/A,Snow,Light Snow,350,2013-04-12 14:55:00
10:55 AM,33.8,30.2,87,29.64,3.0,North,4.6,-,N/A,Snow,Light Snow,350,2013-04-12 15:55:00
11:55 AM,35.6,32.0,87,29.65,10.0,NNW,5.8,-,N/A,,Overcast,340,2013-04-12 16:55:00
12:55 PM,35.6,32.0,87,29.66,10.0,WNW,6.9,-,N/A,,Overcast,300,2013-04-12 17:55:00
1:08 PM,35.6,32.0,87,29.63,5.0,NW,5.8,-,N/A,Snow,Light Snow,320,2013-04-12 18:08:00
1:09 PM,35.6,32.0,87,29.66,10.0,NW,6.9,-,N/A,,Overcast,320,2013-04-12 18:09:00
1:55 PM,35.6,32.0,87,29.68,10.0,WNW,6.9,-,N/A,Snow,Light Snow,290,2013-04-12 18:55:00
2:55 PM,35.6,33.8,93,29.70,6.0,West,8.1,-,N/A,Snow,Light Snow,270,2013-04-12 19:55:00
2:57 PM,35.6,33.8,93,29.70,10.0,West,8.1,-,N/A,,Overcast,270,2013-04-12 19:57:00
3:55 PM,33.8,30.2,87,29.72,10.0,West,12.7,-,N/A,,Overcast,270,2013-04-12 20:55:00